SNAPSHOT-1

operational
NORAD ID: 1314 Int'l Des: 1965-027 Owner: AFSSD/AEC Country: US
LEOCIRCULARRETROGRADE

SNAPSHOT-1について

説明を読み込み中...

リアルタイム位置

3D地球を読み込み中...

次回通過

高度履歴

Altitude vs Time

uPlot chart will show altitude changes over time

軌道要素

1 1314U 65027A 26062.37467058 .00000033 00000-0 94479-4 0 9998
2 1314 90.2453 3.9177 0029495 203.9975 274.7868 12.91803244617364
Epoch: Mar 3, 2026 • Age: 21 hours

現在のステータス

高度 1297.8 km
速度 7.22 km/s
衛星直下点 -57.10°S, 70.6°E
タイプ other

大規模コンステレーション

Loading constellations...